Location: Igri�s
(42.2144°N, 0.4320°W)
Time: 18:17:23
(UTC+00:00)

Cosmos 2360 Rocket - Pass Details

Date: 13 August 2020
Orbit: 833 x 845 km, 71.0° (Epoch: 18 September)

Event Time Altitude Azimuth Distance (km) Brightness Sun altitude
Rises 22:37:17 0° 332° (NNW) 3,412 6.6 -29.9°
Reaches altitude 10° 22:39:46 10° 330° (NNW) 2,472 5.5 -30.1°
Enters shadow 22:44:39 57° 286° (WNW) 985 2.6 -30.4°
